Year,Month,Day,Hour,Minute,Value (Times are PST for temperature in C)
2008,04,03,01,03,6.10
2008,04,03,01,04,6.10
2008,04,03,01,05,6.10
2008,04,03,01,06,6.10
2008,04,03,01,07,6.10
2008,04,03,01,08,6.10
2008,04,03,01,09,6.10
2008,04,03,01,10,6.10
2008,04,03,01,11,6.10
2008,04,03,01,12,6.10
2008,04,03,01,13,6.10
2008,04,03,01,14,6.10
2008,04,03,01,15,6.10
2008,04,03,01,16,6.10
2008,04,03,01,17,6.10
2008,04,03,01,18,6.10
2008,04,03,01,19,6.10
2008,04,03,01,20,6.10
2008,04,03,01,21,6.10
2008,04,03,01,22,6.10
2008,04,03,01,23,6.10
2008,04,03,01,24,6.10
2008,04,03,01,25,6.10
2008,04,03,01,26,6.10
2008,04,03,01,27,6.10
2008,04,03,01,28,6.10
2008,04,03,01,29,6.10
2008,04,03,01,30,6.10
2008,04,03,01,31,6.10
2008,04,03,01,32,6.10
2008,04,03,01,33,6.10
2008,04,03,01,34,6.10
2008,04,03,01,35,6.10
2008,04,03,01,36,6.10
2008,04,03,01,37,6.10
2008,04,03,01,38,6.10
2008,04,03,01,39,6.10
2008,04,03,01,40,6.10
2008,04,03,01,41,6.10
2008,04,03,01,42,6.10
2008,04,03,01,43,6.10
2008,04,03,01,44,6.00
2008,04,03,01,45,6.00
2008,04,03,01,46,6.00
2008,04,03,01,47,6.00
2008,04,03,01,48,6.00
2008,04,03,01,49,5.90
2008,04,03,01,50,5.90
2008,04,03,01,51,5.90
2008,04,03,01,52,5.90
2008,04,03,01,53,5.90
2008,04,03,01,54,5.90
2008,04,03,01,55,5.90
2008,04,03,01,56,5.90
2008,04,03,01,57,5.90
2008,04,03,01,58,5.90
2008,04,03,01,59,5.90
2008,04,03,02,00,5.90
2008,04,03,02,01,5.90
2008,04,03,02,02,5.90
2008,04,03,02,03,5.90
2008,04,03,02,04,5.90
2008,04,03,02,05,5.90
2008,04,03,02,06,5.70
2008,04,03,02,07,5.70
2008,04,03,02,08,5.70
2008,04,03,02,09,5.70
2008,04,03,02,10,5.70
2008,04,03,02,12,5.60
2008,04,03,02,13,5.60
2008,04,03,02,14,5.60
2008,04,03,02,15,5.60
2008,04,03,02,16,5.60
2008,04,03,02,17,5.60
2008,04,03,02,18,5.60
2008,04,03,02,19,5.60
2008,04,03,02,20,5.60
2008,04,03,02,21,5.60
2008,04,03,02,22,5.60
2008,04,03,02,23,5.60
2008,04,03,02,24,5.60
2008,04,03,02,25,5.60
2008,04,03,02,26,5.60
2008,04,03,02,27,5.60
2008,04,03,02,28,5.60
2008,04,03,02,29,5.60
2008,04,03,02,30,5.60
2008,04,03,02,31,5.60
2008,04,03,02,32,5.60
2008,04,03,02,33,5.60
2008,04,03,02,34,5.60
2008,04,03,02,35,5.60
2008,04,03,02,36,5.60
2008,04,03,02,37,5.40
2008,04,03,02,38,5.40
2008,04,03,02,39,5.40
2008,04,03,02,40,5.40
2008,04,03,02,41,5.40
2008,04,03,02,42,5.40
2008,04,03,02,43,5.40
2008,04,03,02,44,5.40
2008,04,03,02,45,5.40
2008,04,03,02,46,5.40
2008,04,03,02,47,5.30
2008,04,03,02,48,5.30
2008,04,03,02,49,5.30
2008,04,03,02,50,5.30
2008,04,03,02,51,5.30
2008,04,03,02,52,5.30
2008,04,03,02,53,5.30
2008,04,03,02,54,5.30
2008,04,03,02,55,5.30
2008,04,03,02,56,5.30
2008,04,03,02,57,5.30
2008,04,03,02,58,5.30
2008,04,03,02,59,5.30
2008,04,03,03,00,5.30
2008,04,03,03,01,5.30
2008,04,03,03,02,5.30
2008,04,03,03,03,5.30
2008,04,03,03,04,5.30
2008,04,03,03,06,5.30
2008,04,03,03,07,5.30
2008,04,03,03,09,5.20
2008,04,03,03,10,5.20
2008,04,03,03,12,5.20
2008,04,03,03,13,5.20
2008,04,03,03,14,5.20
2008,04,03,03,15,5.20
2008,04,03,03,16,5.20
2008,04,03,03,17,5.20
2008,04,03,03,19,5.10
2008,04,03,03,20,5.10
2008,04,03,03,22,5.10
2008,04,03,03,24,5.10
2008,04,03,03,25,5.10
2008,04,03,03,27,5.10
2008,04,03,03,28,5.10
2008,04,03,03,29,5.10
2008,04,03,03,30,5.10
2008,04,03,03,31,5.10
2008,04,03,03,32,5.10
2008,04,03,03,33,5.10
2008,04,03,03,34,5.10
2008,04,03,03,36,5.10
2008,04,03,03,37,5.10
2008,04,03,03,38,5.10
2008,04,03,03,39,5.10
2008,04,03,03,41,5.10
2008,04,03,03,42,5.10
2008,04,03,03,43,5.10
2008,04,03,03,45,5.10
2008,04,03,03,46,5.10
2008,04,03,03,47,5.10
2008,04,03,03,48,5.10
2008,04,03,03,49,5.10
2008,04,03,03,50,5.10
2008,04,03,03,51,5.10
2008,04,03,03,52,5.10
2008,04,03,03,53,5.10
2008,04,03,03,54,5.10
2008,04,03,03,55,5.10
2008,04,03,03,56,5.10
2008,04,03,03,57,5.10
2008,04,03,03,58,5.10
2008,04,03,03,59,5.10
2008,04,03,04,00,5.10
2008,04,03,04,01,5.10
2008,04,03,04,02,5.10
2008,04,03,04,03,5.10
2008,04,03,04,04,5.10
2008,04,03,04,05,5.10
2008,04,03,04,06,5.10
2008,04,03,04,07,5.10
2008,04,03,04,08,5.10
2008,04,03,04,09,5.10
2008,04,03,04,10,5.10
2008,04,03,04,11,5.20
2008,04,03,04,12,5.20
2008,04,03,04,13,5.20
2008,04,03,04,14,5.20
2008,04,03,04,15,5.20
2008,04,03,04,16,5.20
2008,04,03,04,17,5.20
2008,04,03,04,18,5.20
2008,04,03,04,19,5.20
2008,04,03,04,20,5.20
2008,04,03,04,21,5.20
2008,04,03,04,22,5.20
2008,04,03,04,23,5.20
2008,04,03,04,24,5.20
2008,04,03,04,25,5.20
2008,04,03,04,26,5.20
2008,04,03,04,27,5.10
2008,04,03,04,28,5.10
2008,04,03,04,29,5.10
2008,04,03,04,30,5.10
2008,04,03,04,31,5.10
2008,04,03,04,32,5.10
2008,04,03,04,33,5.10
2008,04,03,04,34,5.10
2008,04,03,04,35,5.10
2008,04,03,04,36,5.10
2008,04,03,04,37,5.10
2008,04,03,04,38,5.10
2008,04,03,04,39,5.10
2008,04,03,04,40,5.10
2008,04,03,04,41,5.10
2008,04,03,04,42,5.10
2008,04,03,04,43,5.10
2008,04,03,04,44,4.70
2008,04,03,04,45,4.70
2008,04,03,04,46,4.70
2008,04,03,04,47,4.70
2008,04,03,04,48,4.70
2008,04,03,04,49,4.70
2008,04,03,04,50,4.70
2008,04,03,04,51,4.70
2008,04,03,04,52,4.70
2008,04,03,04,53,4.70
2008,04,03,04,54,4.70
2008,04,03,04,56,4.70
2008,04,03,04,57,4.70
2008,04,03,04,58,4.70
2008,04,03,04,59,4.70
2008,04,03,05,00,4.70
2008,04,03,05,01,4.70
2008,04,03,05,02,4.70
2008,04,03,05,03,4.70
2008,04,03,05,04,4.70
2008,04,03,05,05,4.70
2008,04,03,05,06,4.70
2008,04,03,05,07,4.70
2008,04,03,05,08,4.70
2008,04,03,05,09,4.70
2008,04,03,05,10,4.70
2008,04,03,05,11,4.70
2008,04,03,05,12,4.70
2008,04,03,05,13,4.70
2008,04,03,05,14,4.70
2008,04,03,05,15,4.80
2008,04,03,05,16,4.80
2008,04,03,05,17,4.80
2008,04,03,05,18,4.80
2008,04,03,05,19,4.80
2008,04,03,05,20,4.80
2008,04,03,05,21,4.80
2008,04,03,05,22,4.80
2008,04,03,05,23,4.80
2008,04,03,05,24,4.80
2008,04,03,05,25,4.80
2008,04,03,05,26,4.80
2008,04,03,05,27,4.80
2008,04,03,05,28,4.80
2008,04,03,05,29,4.80
2008,04,03,05,30,4.90
2008,04,03,05,31,4.90
2008,04,03,05,32,4.90
2008,04,03,05,33,4.90
2008,04,03,05,34,4.90
2008,04,03,05,35,4.90
2008,04,03,05,36,4.90
2008,04,03,05,37,4.90
2008,04,03,05,38,4.90
2008,04,03,05,39,4.90
2008,04,03,05,40,4.90
2008,04,03,05,41,4.90
2008,04,03,05,42,4.90
2008,04,03,05,43,4.90
2008,04,03,05,44,4.90
2008,04,03,05,45,4.90
2008,04,03,05,46,4.60
2008,04,03,05,47,4.60
2008,04,03,05,48,4.60
2008,04,03,05,49,4.60
2008,04,03,05,51,4.50
2008,04,03,05,52,4.50
2008,04,03,05,53,4.50
2008,04,03,05,54,4.50
2008,04,03,05,55,4.50
2008,04,03,05,56,4.40
2008,04,03,05,57,4.40
2008,04,03,05,58,4.40
2008,04,03,05,59,4.40
2008,04,03,06,00,4.40
2008,04,03,06,01,4.40
2008,04,03,06,02,4.40
2008,04,03,06,03,4.40
2008,04,03,06,04,4.40
2008,04,03,06,05,4.40
2008,04,03,06,06,4.40
2008,04,03,06,07,4.40
2008,04,03,06,08,4.40
2008,04,03,06,09,4.40
2008,04,03,06,10,4.40
2008,04,03,06,11,4.40
2008,04,03,06,12,4.40
2008,04,03,06,13,4.40
2008,04,03,06,14,4.40
2008,04,03,06,15,4.40
2008,04,03,06,16,4.40
2008,04,03,06,17,4.00
2008,04,03,06,18,4.00
2008,04,03,06,19,4.00
2008,04,03,06,20,4.00
2008,04,03,06,21,4.00
2008,04,03,06,23,4.00
2008,04,03,06,24,4.00
2008,04,03,06,25,4.00
2008,04,03,06,26,4.00
2008,04,03,06,27,4.00
2008,04,03,06,28,4.00
2008,04,03,06,29,4.00
2008,04,03,06,30,4.00
2008,04,03,06,31,4.10
2008,04,03,06,32,4.10
2008,04,03,06,33,4.10
2008,04,03,06,34,4.10
2008,04,03,06,35,4.10
2008,04,03,06,36,4.10
2008,04,03,06,37,4.10
2008,04,03,06,38,4.10
2008,04,03,06,39,4.10
2008,04,03,06,40,4.10
2008,04,03,06,41,4.10
2008,04,03,06,42,4.10
2008,04,03,06,43,4.10
2008,04,03,06,44,4.10
2008,04,03,06,45,4.10
2008,04,03,06,46,4.10
2008,04,03,06,47,4.10
2008,04,03,06,48,4.40
2008,04,03,06,49,4.40
2008,04,03,06,50,4.40
2008,04,03,06,51,4.40
2008,04,03,06,52,4.40
2008,04,03,06,53,4.40
2008,04,03,06,54,4.30
2008,04,03,06,55,4.30
2008,04,03,06,56,4.30
2008,04,03,06,57,4.30
2008,04,03,06,59,4.30
2008,04,03,07,00,4.30
2008,04,03,07,01,4.30
2008,04,03,07,02,4.30
2008,04,03,07,03,4.30
2008,04,03,07,04,4.30
2008,04,03,07,05,4.30
2008,04,03,07,06,4.30
2008,04,03,07,07,4.30
2008,04,03,07,08,4.30
2008,04,03,07,09,4.30
2008,04,03,07,10,4.30
2008,04,03,07,11,4.30
2008,04,03,07,12,4.30
2008,04,03,07,13,4.30
2008,04,03,07,14,4.30
2008,04,03,07,15,4.30
2008,04,03,07,16,4.30
2008,04,03,07,17,4.30
2008,04,03,07,18,4.30
2008,04,03,07,19,4.30
2008,04,03,07,20,4.70
2008,04,03,07,21,4.70
2008,04,03,07,22,4.70
2008,04,03,07,23,4.70
2008,04,03,07,24,4.70
2008,04,03,07,26,4.80
2008,04,03,07,27,4.80
2008,04,03,07,28,4.80
2008,04,03,07,29,4.80
2008,04,03,07,30,4.90
2008,04,03,07,32,4.90
2008,04,03,07,33,4.90
2008,04,03,07,34,4.90
2008,04,03,07,35,4.90
2008,04,03,07,36,4.90
2008,04,03,07,37,4.90
2008,04,03,07,38,4.90
2008,04,03,07,39,4.90
2008,04,03,07,40,4.90
2008,04,03,07,41,4.90
2008,04,03,07,42,4.90
2008,04,03,07,43,4.90
2008,04,03,07,44,4.90
2008,04,03,07,45,4.90
2008,04,03,07,46,4.90
2008,04,03,07,47,4.90
2008,04,03,07,48,4.90
2008,04,03,07,49,4.90
2008,04,03,07,50,4.90
2008,04,03,07,51,4.90
2008,04,03,07,52,5.10
2008,04,03,07,53,5.10
2008,04,03,07,54,5.10
2008,04,03,07,55,5.10
2008,04,03,07,56,5.10
2008,04,03,07,57,5.10
2008,04,03,07,58,5.10
2008,04,03,07,59,5.10
2008,04,03,08,00,5.10
2008,04,03,08,01,5.10
2008,04,03,08,02,5.10
2008,04,03,08,03,5.10
2008,04,03,08,04,5.10
2008,04,03,08,05,5.10
2008,04,03,08,06,5.10
2008,04,03,08,07,5.20
2008,04,03,08,08,5.20
2008,04,03,08,09,5.20
2008,04,03,08,10,5.20
2008,04,03,08,11,5.20
2008,04,03,08,12,5.20
2008,04,03,08,13,5.20
2008,04,03,08,14,5.20
2008,04,03,08,15,5.20
2008,04,03,08,16,5.20
2008,04,03,08,17,5.20
2008,04,03,08,18,5.20
2008,04,03,08,19,5.20
2008,04,03,08,20,5.20
2008,04,03,08,21,5.20
2008,04,03,08,22,5.20
2008,04,03,08,23,5.30
2008,04,03,08,24,5.30
2008,04,03,08,25,5.30
2008,04,03,08,26,5.30
2008,04,03,08,27,5.30
2008,04,03,08,29,5.40
2008,04,03,08,30,5.40
2008,04,03,08,31,5.40
2008,04,03,08,32,5.40
2008,04,03,08,33,5.50
2008,04,03,08,34,5.50
2008,04,03,08,35,5.50
2008,04,03,08,36,5.50
2008,04,03,08,37,5.60
2008,04,03,08,38,5.60
2008,04,03,08,39,5.60
2008,04,03,08,40,5.60
2008,04,03,08,41,5.60
2008,04,03,08,42,5.60
2008,04,03,08,43,5.60
2008,04,03,08,44,5.60
2008,04,03,08,45,5.60
2008,04,03,08,46,5.60
2008,04,03,08,47,5.60
2008,04,03,08,48,5.60
2008,04,03,08,49,5.60
2008,04,03,08,50,5.60
2008,04,03,08,51,5.60
2008,04,03,08,52,5.60
2008,04,03,08,53,5.60
2008,04,03,08,54,5.60
2008,04,03,08,55,6.00
2008,04,03,08,56,6.00
2008,04,03,08,57,6.00
2008,04,03,08,58,6.00
2008,04,03,09,00,6.10
2008,04,03,09,01,6.10
2008,04,03,09,02,6.10
2008,04,03,09,03,6.10
2008,04,03,09,04,6.20
2008,04,03,09,05,6.20
2008,04,03,09,06,6.20
2008,04,03,09,07,6.20
2008,04,03,09,08,6.20
2008,04,03,09,09,6.40
2008,04,03,09,10,6.40
2008,04,03,09,11,6.40
2008,04,03,09,12,6.40
2008,04,03,09,13,6.40
2008,04,03,09,14,6.40
2008,04,03,09,15,6.40
2008,04,03,09,16,6.40
2008,04,03,09,17,6.40
2008,04,03,09,18,6.40
2008,04,03,09,19,6.40
2008,04,03,09,20,6.40
2008,04,03,09,21,6.40
2008,04,03,09,22,6.40
2008,04,03,09,23,6.40
2008,04,03,09,24,6.40
2008,04,03,09,25,6.30
2008,04,03,09,26,6.30
2008,04,03,09,27,6.30
2008,04,03,09,28,6.30
2008,04,03,09,29,6.30
2008,04,03,09,30,6.40
2008,04,03,09,31,6.40
2008,04,03,09,32,6.40
2008,04,03,09,33,6.40
2008,04,03,09,34,6.40
2008,04,03,09,35,6.30
2008,04,03,09,36,6.30
2008,04,03,09,37,6.30
2008,04,03,09,38,6.30
2008,04,03,09,39,6.30
2008,04,03,09,40,6.30
2008,04,03,09,41,6.30
2008,04,03,09,42,6.30
2008,04,03,09,43,6.30
2008,04,03,09,44,6.30
2008,04,03,09,45,6.30
2008,04,03,09,46,6.30
2008,04,03,09,47,6.30
2008,04,03,09,48,6.30
2008,04,03,09,49,6.30
2008,04,03,09,50,6.30
2008,04,03,09,51,6.30
2008,04,03,09,52,6.30
2008,04,03,09,53,6.30
2008,04,03,09,54,6.30
2008,04,03,09,55,6.30
2008,04,03,09,56,6.10
2008,04,03,09,57,6.10
2008,04,03,09,58,6.10
2008,04,03,09,59,6.10
2008,04,03,10,00,6.10
2008,04,03,10,01,6.10
2008,04,03,10,02,6.10
2008,04,03,10,03,6.10
2008,04,03,10,04,6.10
2008,04,03,10,05,6.10
2008,04,03,10,07,6.10
2008,04,03,10,08,6.10
2008,04,03,10,09,6.10
2008,04,03,10,11,6.20
2008,04,03,10,12,6.20
2008,04,03,10,13,6.20
2008,04,03,10,14,6.20
2008,04,03,10,15,6.20
2008,04,03,10,16,6.20
2008,04,03,10,17,6.20
2008,04,03,10,18,6.20
2008,04,03,10,19,6.20
2008,04,03,10,20,6.20
2008,04,03,10,21,6.20
2008,04,03,10,22,6.20
2008,04,03,10,23,6.20
2008,04,03,10,24,6.20
2008,04,03,10,25,6.20
2008,04,03,10,26,6.20
2008,04,03,10,27,6.10
2008,04,03,10,28,6.10
2008,04,03,10,29,6.10
2008,04,03,10,30,6.10
2008,04,03,10,31,6.10
2008,04,03,10,32,6.20
2008,04,03,10,33,6.20
2008,04,03,10,34,6.20
2008,04,03,10,35,6.20
2008,04,03,10,36,6.20
2008,04,03,10,38,6.40
2008,04,03,10,39,6.40
2008,04,03,10,40,6.40
2008,04,03,10,42,6.60
2008,04,03,10,43,6.60
2008,04,03,10,44,6.60
2008,04,03,10,45,6.60
2008,04,03,10,46,6.60
2008,04,03,10,47,6.60
2008,04,03,10,48,6.60
2008,04,03,10,49,6.60
2008,04,03,10,50,6.60
2008,04,03,10,51,6.60
2008,04,03,10,52,6.60
2008,04,03,10,53,6.60
2008,04,03,10,54,6.60
2008,04,03,10,55,6.60
2008,04,03,10,56,6.60
2008,04,03,10,57,6.60
2008,04,03,10,58,6.50
2008,04,03,10,59,6.50
2008,04,03,11,00,6.50
2008,04,03,11,01,6.50
2008,04,03,11,02,6.50
2008,04,03,11,03,6.40
2008,04,03,11,04,6.40
2008,04,03,11,05,6.40
2008,04,03,11,06,6.40
2008,04,03,11,07,6.40
2008,04,03,11,08,6.40
2008,04,03,11,09,6.60
2008,04,03,11,10,6.60
2008,04,03,11,11,6.60
2008,04,03,11,12,6.60
2008,04,03,11,13,6.60
2008,04,03,11,14,6.60
2008,04,03,11,15,6.60
2008,04,03,11,16,6.60
2008,04,03,11,17,6.60
2008,04,03,11,18,6.60
2008,04,03,11,19,6.60
2008,04,03,11,20,6.60
2008,04,03,11,21,6.60
2008,04,03,11,22,6.60
2008,04,03,11,23,6.60
2008,04,03,11,24,6.60
2008,04,03,11,25,6.60
2008,04,03,11,26,6.60
2008,04,03,11,27,6.60
2008,04,03,11,28,6.60
2008,04,03,11,29,6.70
2008,04,03,11,30,6.70
2008,04,03,11,32,6.70
2008,04,03,11,33,6.70
2008,04,03,11,34,6.70
2008,04,03,11,35,6.70
2008,04,03,11,36,6.70
2008,04,03,11,37,6.70
2008,04,03,11,38,6.70
2008,04,03,11,40,6.70
2008,04,03,11,41,6.70
2008,04,03,11,42,6.70
2008,04,03,11,43,6.70
2008,04,03,11,44,6.70
2008,04,03,11,45,6.70
2008,04,03,11,46,6.70
2008,04,03,11,47,6.70
2008,04,03,11,48,6.70
2008,04,03,11,49,6.70
2008,04,03,11,50,6.70
2008,04,03,11,51,6.70
2008,04,03,11,52,6.70
2008,04,03,11,53,6.70
2008,04,03,11,54,6.70
2008,04,03,11,55,6.70
2008,04,03,11,56,6.70
2008,04,03,11,57,6.70
2008,04,03,11,58,6.70
2008,04,03,11,59,6.70
2008,04,03,12,00,6.70
2008,04,03,12,01,6.70
2008,04,03,12,02,6.90
2008,04,03,12,03,6.90
2008,04,03,12,04,6.90
2008,04,03,12,05,6.90
2008,04,03,12,06,6.90
2008,04,03,12,07,6.90
2008,04,03,12,08,7.20
2008,04,03,12,09,7.20
2008,04,03,12,10,7.20
2008,04,03,12,11,7.20
2008,04,03,12,13,7.30
2008,04,03,12,14,7.30
2008,04,03,12,15,7.30
2008,04,03,12,17,7.30
2008,04,03,12,18,7.30
2008,04,03,12,19,7.30
2008,04,03,12,20,7.30
2008,04,03,12,21,7.30
2008,04,03,12,22,7.30
2008,04,03,12,23,7.30
2008,04,03,12,24,7.30
2008,04,03,12,25,7.30
2008,04,03,12,26,7.30
2008,04,03,12,27,7.30
2008,04,03,12,28,7.30
2008,04,03,12,29,7.30
2008,04,03,12,30,7.30
2008,04,03,12,31,7.30
2008,04,03,12,32,7.30
2008,04,03,12,33,7.30
2008,04,03,12,34,7.30
2008,04,03,12,35,7.50
2008,04,03,12,36,7.50
2008,04,03,12,37,7.50
2008,04,03,12,38,7.50
2008,04,03,12,40,7.70
2008,04,03,12,41,7.70
2008,04,03,12,42,7.70
2008,04,03,12,43,7.70
2008,04,03,12,44,7.70
2008,04,03,12,45,7.70
2008,04,03,12,46,7.70
2008,04,03,12,47,7.70
2008,04,03,12,48,7.70
2008,04,03,12,49,7.70
2008,04,03,12,50,7.30
2008,04,03,12,51,7.30
2008,04,03,12,52,7.30
2008,04,03,12,53,7.30
2008,04,03,12,54,7.30
2008,04,03,12,55,7.30
2008,04,03,12,56,7.30
2008,04,03,12,57,7.30
2008,04,03,12,58,7.30
2008,04,03,12,59,7.30
2008,04,03,13,00,7.30
2008,04,03,13,01,7.30
2008,04,03,13,02,7.30
2008,04,03,13,03,7.30
2008,04,03,13,04,7.30
2008,04,03,13,05,7.30
2008,04,03,13,06,7.30
2008,04,03,13,07,7.30
2008,04,03,13,08,7.60
2008,04,03,13,09,7.60
2008,04,03,13,10,7.60
2008,04,03,13,11,7.60
2008,04,03,13,12,7.60
2008,04,03,13,13,7.50
2008,04,03,13,14,7.50
2008,04,03,13,15,7.50
2008,04,03,13,16,7.50
2008,04,03,13,17,7.50
2008,04,03,13,18,7.60
2008,04,03,13,19,7.60
2008,04,03,13,20,7.60
2008,04,03,13,21,7.60
2008,04,03,13,23,7.70
2008,04,03,13,24,7.70
2008,04,03,13,25,7.70
2008,04,03,13,26,7.70
2008,04,03,13,27,7.70
2008,04,03,13,28,7.70
2008,04,03,13,29,7.70
2008,04,03,13,30,7.70
2008,04,03,13,31,7.70
2008,04,03,13,32,7.70
2008,04,03,13,33,7.70
2008,04,03,13,34,7.70
2008,04,03,13,35,7.70
2008,04,03,13,36,7.70
2008,04,03,13,37,7.70
2008,04,03,13,38,7.70
2008,04,03,13,39,7.80
2008,04,03,13,40,7.80
2008,04,03,13,41,7.80
2008,04,03,13,42,7.80
2008,04,03,13,43,7.80
2008,04,03,13,45,7.80
2008,04,03,13,46,7.80
2008,04,03,13,47,7.80
2008,04,03,13,48,7.80
2008,04,03,13,49,7.80
2008,04,03,13,50,7.90
2008,04,03,13,51,7.90
2008,04,03,13,52,7.90
2008,04,03,13,53,7.90
2008,04,03,13,54,8.00
2008,04,03,13,55,8.00
2008,04,03,13,56,8.00
2008,04,03,13,57,8.00
2008,04,03,13,58,8.00
2008,04,03,13,59,8.00
2008,04,03,14,00,8.00
2008,04,03,14,01,8.00
2008,04,03,14,02,8.00
2008,04,03,14,03,8.00
2008,04,03,14,04,8.00
2008,04,03,14,05,8.00
2008,04,03,14,06,8.00
2008,04,03,14,07,8.00
2008,04,03,14,08,8.00
2008,04,03,14,09,8.00
2008,04,03,14,10,8.10
2008,04,03,14,11,8.10
2008,04,03,14,12,8.10
2008,04,03,14,13,8.10
2008,04,03,14,14,8.10
2008,04,03,14,15,7.90
2008,04,03,14,16,7.90
2008,04,03,14,17,7.90
2008,04,03,14,18,7.90
2008,04,03,14,19,7.90
2008,04,03,14,20,7.90
2008,04,03,14,21,8.00
2008,04,03,14,22,8.00
2008,04,03,14,23,8.00
2008,04,03,14,25,8.20
2008,04,03,14,26,8.20
2008,04,03,14,27,8.20
2008,04,03,14,28,8.20
2008,04,03,14,29,8.20
2008,04,03,14,30,8.20
2008,04,03,14,31,8.20
2008,04,03,14,32,8.20
2008,04,03,14,33,8.20
2008,04,03,14,34,8.20
2008,04,03,14,35,8.20
2008,04,03,14,36,8.20
2008,04,03,14,37,8.20
2008,04,03,14,38,8.20
2008,04,03,14,39,8.20
2008,04,03,14,40,8.20
2008,04,03,14,41,8.20
2008,04,03,14,42,8.20
2008,04,03,14,43,8.20
2008,04,03,14,44,8.20
2008,04,03,14,45,8.20
2008,04,03,14,46,8.20
2008,04,03,14,47,8.20
2008,04,03,14,48,8.20
2008,04,03,14,49,8.20
2008,04,03,14,50,8.20
2008,04,03,14,52,8.00
2008,04,03,14,53,8.00
2008,04,03,14,54,8.00
2008,04,03,14,55,8.00
2008,04,03,14,56,8.30
2008,04,03,14,57,8.30
2008,04,03,14,58,8.30
2008,04,03,14,59,8.30
2008,04,03,15,00,8.30
2008,04,03,15,01,8.30
2008,04,03,15,02,8.30
2008,04,03,15,03,8.30
2008,04,03,15,04,8.30
2008,04,03,15,05,8.30
2008,04,03,15,06,8.30
2008,04,03,15,07,8.30
2008,04,03,15,08,8.30
2008,04,03,15,09,8.30
2008,04,03,15,10,8.30
2008,04,03,15,11,8.30
2008,04,03,15,12,8.50
2008,04,03,15,13,8.50
2008,04,03,15,14,8.50
2008,04,03,15,15,8.50
2008,04,03,15,16,8.50
2008,04,03,15,18,8.40
2008,04,03,15,19,8.40
2008,04,03,15,20,8.40
2008,04,03,15,21,8.40
2008,04,03,15,22,8.40
2008,04,03,15,23,8.40
2008,04,03,15,24,8.40
2008,04,03,15,25,8.40
2008,04,03,15,26,8.40
2008,04,03,15,27,8.40
2008,04,03,15,28,8.40
2008,04,03,15,29,8.40
2008,04,03,15,30,8.40
2008,04,03,15,31,8.40
2008,04,03,15,32,8.40
2008,04,03,15,33,8.40
2008,04,03,15,34,8.40
2008,04,03,15,35,8.40
2008,04,03,15,36,8.40
2008,04,03,15,37,8.40
2008,04,03,15,38,8.40
2008,04,03,15,39,8.40
2008,04,03,15,40,8.40
2008,04,03,15,41,8.40
2008,04,03,15,42,8.40
2008,04,03,15,43,8.40
2008,04,03,15,44,8.50
2008,04,03,15,45,8.50
2008,04,03,15,46,8.50
2008,04,03,15,47,8.50
2008,04,03,15,49,8.30
2008,04,03,15,50,8.30
2008,04,03,15,51,8.30
2008,04,03,15,52,8.30
2008,04,03,15,53,8.30
2008,04,03,15,54,8.20
2008,04,03,15,55,8.20
2008,04,03,15,56,8.20
2008,04,03,15,57,8.20
2008,04,03,15,59,8.20
2008,04,03,16,00,8.20
2008,04,03,16,01,8.20
2008,04,03,16,02,8.20
2008,04,03,16,03,8.20
2008,04,03,16,04,8.20
2008,04,03,16,05,8.20
2008,04,03,16,06,8.20
2008,04,03,16,07,8.20
2008,04,03,16,08,8.20
2008,04,03,16,09,8.20
2008,04,03,16,10,8.20
2008,04,03,16,11,8.20
2008,04,03,16,12,8.20
2008,04,03,16,13,8.20
2008,04,03,16,14,8.20
2008,04,03,16,15,8.20
2008,04,03,16,16,8.20
2008,04,03,16,17,8.20
2008,04,03,16,18,8.20
2008,04,03,16,19,8.20
2008,04,03,16,20,8.20
2008,04,03,16,22,8.20
2008,04,03,16,23,8.20
2008,04,03,16,24,8.20
2008,04,03,16,25,8.20
2008,04,03,16,26,8.20
2008,04,03,16,27,8.20
2008,04,03,16,28,8.20
2008,04,03,16,29,8.20
2008,04,03,16,30,8.20
2008,04,03,16,31,8.20
2008,04,03,16,32,8.20
2008,04,03,16,33,8.20
2008,04,03,16,34,8.20
2008,04,03,16,35,8.20
2008,04,03,16,36,8.20
2008,04,03,16,37,8.20
2008,04,03,16,38,8.20
2008,04,03,16,39,8.20
2008,04,03,16,40,8.20
2008,04,03,16,41,8.20
2008,04,03,16,42,8.20
2008,04,03,16,43,8.20
2008,04,03,16,44,8.20
2008,04,03,16,45,8.20
2008,04,03,16,46,8.20
2008,04,03,16,47,8.20
2008,04,03,16,48,8.20
2008,04,03,16,49,8.00
2008,04,03,16,50,8.00
2008,04,03,16,51,8.00
2008,04,03,16,52,8.00
2008,04,03,16,53,8.00
2008,04,03,16,54,8.30
2008,04,03,16,55,8.30
2008,04,03,16,56,8.30
2008,04,03,16,57,8.30
2008,04,03,16,58,8.30
2008,04,03,16,59,8.30
2008,04,03,17,00,8.30
2008,04,03,17,01,8.40
2008,04,03,17,02,8.40
2008,04,03,17,03,8.40
2008,04,03,17,04,8.40
2008,04,03,17,05,8.40
2008,04,03,17,06,8.40
2008,04,03,17,07,8.40
2008,04,03,17,08,8.40
2008,04,03,17,09,8.40
2008,04,03,17,10,8.40
2008,04,03,17,11,8.40
2008,04,03,17,12,8.40
2008,04,03,17,13,8.40
2008,04,03,17,14,8.40
2008,04,03,17,15,8.40
2008,04,03,17,16,8.40
2008,04,03,17,17,8.40
2008,04,03,17,18,8.40
2008,04,03,17,19,8.40
2008,04,03,17,20,8.40
2008,04,03,17,21,8.40
2008,04,03,17,22,8.00
2008,04,03,17,23,8.00
2008,04,03,17,24,8.00
2008,04,03,17,25,8.00
2008,04,03,17,26,8.00
2008,04,03,17,28,7.90
2008,04,03,17,29,7.90
2008,04,03,17,30,7.90
2008,04,03,17,31,7.90
2008,04,03,17,32,7.90
2008,04,03,17,34,7.90
2008,04,03,17,35,7.90
2008,04,03,17,37,7.80
2008,04,03,17,38,7.80
2008,04,03,17,39,7.80
2008,04,03,17,40,7.80
2008,04,03,17,41,7.80
2008,04,03,17,42,7.80
2008,04,03,17,43,7.80
2008,04,03,17,44,7.80
2008,04,03,17,45,7.80
2008,04,03,17,46,7.80
2008,04,03,17,47,7.80
2008,04,03,17,48,7.80
2008,04,03,17,49,7.80
2008,04,03,17,50,7.80
2008,04,03,17,51,7.80
2008,04,03,17,52,7.80
2008,04,03,17,53,7.80
2008,04,03,17,54,7.70
2008,04,03,17,55,7.70
2008,04,03,17,56,7.70
2008,04,03,17,57,7.70
2008,04,03,17,58,7.70
2008,04,03,17,59,7.70
2008,04,03,18,00,7.70
2008,04,03,18,01,7.70
2008,04,03,18,02,7.70
2008,04,03,18,03,7.70
2008,04,03,18,04,7.70
2008,04,03,18,05,7.70
2008,04,03,18,06,7.70
2008,04,03,18,07,7.70
2008,04,03,18,08,7.70
2008,04,03,18,09,7.70
2008,04,03,18,10,7.70
2008,04,03,18,11,7.70
2008,04,03,18,12,7.70
2008,04,03,18,13,7.70
2008,04,03,18,14,7.70
2008,04,03,18,15,7.70
2008,04,03,18,16,7.70
2008,04,03,18,17,7.70
2008,04,03,18,18,7.70
2008,04,03,18,19,7.70
2008,04,03,18,20,7.70
2008,04,03,18,21,7.70
2008,04,03,18,22,7.70
2008,04,03,18,23,7.70
2008,04,03,18,24,7.70
2008,04,03,18,25,7.70
2008,04,03,18,26,7.70
2008,04,03,18,27,7.70
2008,04,03,18,28,7.70
2008,04,03,18,29,7.70
2008,04,03,18,30,7.70
2008,04,03,18,31,7.70
2008,04,03,18,32,7.70
2008,04,03,18,33,7.70
2008,04,03,18,34,7.70
2008,04,03,18,35,7.70
2008,04,03,18,37,7.60
2008,04,03,18,38,7.60
2008,04,03,18,39,7.60
2008,04,03,18,41,7.60
2008,04,03,18,42,7.60
2008,04,03,18,43,7.60
2008,04,03,18,44,7.60
2008,04,03,18,45,7.60
2008,04,03,18,46,7.60
2008,04,03,18,47,7.60
2008,04,03,18,48,7.60
2008,04,03,18,49,7.60
2008,04,03,18,50,7.60
2008,04,03,18,51,7.60
2008,04,03,18,52,7.60
2008,04,03,18,53,7.60
2008,04,03,18,54,7.60
2008,04,03,18,55,7.60
2008,04,03,18,56,7.60
2008,04,03,18,57,7.60
2008,04,03,18,58,7.60
2008,04,03,18,59,7.60
2008,04,03,19,00,7.60
2008,04,03,19,01,7.60
2008,04,03,19,02,7.60
2008,04,03,19,03,7.50
2008,04,03,19,04,7.50
2008,04,03,19,05,7.50
2008,04,03,19,06,7.50
2008,04,03,19,07,7.50
2008,04,03,19,09,7.50
2008,04,03,19,10,7.50
2008,04,03,19,11,7.50
2008,04,03,19,13,7.50
2008,04,03,19,14,7.50
2008,04,03,19,15,7.50
2008,04,03,19,16,7.50
2008,04,03,19,17,7.50
2008,04,03,19,18,7.50
2008,04,03,19,19,7.50
2008,04,03,19,20,7.50
2008,04,03,19,21,7.50
2008,04,03,19,22,7.50
2008,04,03,19,23,7.50
2008,04,03,19,24,7.50
2008,04,03,19,25,7.50
2008,04,03,19,26,7.50
2008,04,03,19,27,7.50
2008,04,03,19,28,7.50
2008,04,03,19,29,7.50
2008,04,03,19,30,7.40
2008,04,03,19,31,7.40
2008,04,03,19,32,7.40
2008,04,03,19,33,7.40
2008,04,03,19,34,7.40
2008,04,03,19,35,7.40
2008,04,03,19,36,7.40
2008,04,03,19,37,7.40
2008,04,03,19,38,7.40
2008,04,03,19,40,7.40
2008,04,03,19,42,7.40
2008,04,03,19,43,7.40
2008,04,03,19,45,7.40
2008,04,03,19,46,7.40
2008,04,03,19,47,7.40
2008,04,03,19,48,7.40
2008,04,03,19,49,7.40
2008,04,03,19,50,7.40
2008,04,03,19,51,7.40
2008,04,03,19,52,7.40
2008,04,03,19,53,7.40
2008,04,03,19,54,7.40
2008,04,03,19,55,7.40